Regional Weather Roundup
Issued by NWS Charleston, SC

Current Version | Previous Version | Graphics & Text | Print | Product List | Glossary On
Versions: 1 2 3 4 5 6 7 8 9 10 11 12 13 14 15 16 17 18 19 20 21 22 23 24 25 26 27 28 29 30 31 32 33 34 35 36 37 38 39 40 41 42 43 44 45 46 47 48 49 50
010
ASUS42 KCHS 031412
RWRCHS

REGIONAL WEATHER ROUNDUP
NATIONAL WEATHER SERVICE CHARLESTON SC
900 AM EST SAT DEC 03 2016

NOTE: "FAIR" INDICATES FEW OR NO CLOUDS BELOW 12,000 FEET WITH NO
SIGNIFICANT WEATHER AND/OR OBSTRUCTIONS TO VISIBILITY.

NOT ALL STATIONS ARE QUALITY CONTROLLED. USE DATA WITH CAUTION...
ESPECIALLY DEWPOINT OBSERVATIONS.

SCZ027-030-031-034>040-042>050-031500-
...SOUTHEAST SOUTH CAROLINA...

CITY           SKY/WX    TMP DP  RH WIND       PRES   REMARKS
N CHARLESTON   MOSUNNY   48  35  60 NE12      30.28R
WATERFRONT PRK   N/A     49  40  70 NE12      30.26R
MOUNT PLEASANT NOT AVBL
JOHNS ISLAND   FAIR      50  37  62 NE9       30.28R
PINOPOLIS        N/A     46  37  71 E13       30.20R
MONCKS CORNER  FAIR      46  32  57 NE9       30.29R
SUMMERVILLE    FAIR      45  41  87 CALM      30.30R
BEAUFORT MCAS  CLOUDY    51  41  68 N10       30.27R
BEAUFORT ARPT  FAIR      50  41  71 N6        30.27R
HILTON HEAD IS PTSUNNY   52  41  66 N8        30.27R
WALTERBORO     MOSUNNY   48  37  66 NE7       30.29R
ALLENDALE      FAIR      46  36  66 VRB3      30.27S

...SOUTHERN MIDLANDS AND PEE DEE...

CITY           SKY/WX    TMP DP  RH WIND       PRES   REMARKS
GEORGETOWN     FAIR      45  36  70 NE6       30.29
KINGSTREE      FAIR      41  34  75 CALM      30.29S
ORANGEBURG     PTSUNNY   43  34  70 NE3       30.30R
BARNWELL       NOT AVBL
AIKEN          FAIR      37  36  93 CALM      30.31R
MANNING        NOT AVBL
COLUMBIA       PTSUNNY   42  37  82 CALM      30.30R
SUMTER         MOSUNNY   44  33  65 NE9       30.27S
FLORENCE       MOSUNNY   44  34  67 E6        30.30R
MYRTLE BEACH   MOSUNNY   45  34  65 NE9       30.31R
N MYRTLE BEACH MOSUNNY   43  35  73 NE7       30.28R

$$

GAZ063-065-086>088-099>101-113>116-118-119-134>141-150-031500-
...SOUTHEAST GEORGIA...

CITY           SKY/WX    TMP DP  RH WIND       PRES   REMARKS
SAVANNAH ARPT  CLOUDY    48  38  68 NE3       30.27R
HUNTER AAF     CLOUDY    50  40  68 NE3       30.23R
FORT STEWART   CLOUDY    49  37  62 CALM      30.23R
STATESBORO     MOSUNNY   51  41  67 NE3       30.27R
SYLVANIA       PTSUNNY  N/A N/A N/A NE7       30.28R
CLAXTON        FAIR      49  43  78 CALM      30.26F

...CSRA...CENTRAL AND FAR SOUTHEAST GEORGIA...

CITY           SKY/WX    TMP DP  RH WIND       PRES   REMARKS
THOMSON        MOSUNNY   41  40  97 CALM      30.32S
AUGUSTA-BUSH   MOSUNNY   43  38  82 CALM      30.28S
AUGUSTA-DANIEL CLOUDY    48  32  53 N6        30.28S
SWAINSBORO     FAIR      52  34  50 NE7       30.27F
VIDALIA        PTSUNNY   50  41  71 N7        30.26R
EASTMAN        FAIR      53  27  37 NE6       30.28S
HAZLEHURST     FAIR      50  38  64 N5        30.25R
ALMA           CLOUDY    51  37  58 CALM      30.25R
WAYCROSS       CLOUDY    53  40  60 NE5       30.25S
JESUP          FAIR      52  41  66 CALM      30.25R
BAXLEY         FAIR      52  41  66 N3        30.25S
BRUNSWICK      CLOUDY    52  43  71 CALM      30.25R
SAINT SIMONS   CLOUDY    52  39  61 N7        30.24R

$$

SCZ027-028-034-036>038-045-046-048>050-GAZ119-141-031500-
...LAKE AND SUPPLEMENTAL COASTAL OBSERVATIONS...

STATION/POSITION TIME  TEMP    WIND        PRES    WAVE   SWELL
                       AIR SEA DIR/SP/G            HT/PER HT/PER/DIR
                 (UTC) (F)     (DEG/KT/KT) (MB)    (FT/S) (FT/S/D)
WINYAH BAY       1245   45      10/  7     1024.0
LAKE MURRAY      1320   46      50/  2/  4 1024.7
ACE BASIN NERRS  1245   45     360/  2     1024.0
FORT PULASKI     1348   52 62   30/  6/  6 1024.6R
SAPELO ISLAND    1300   50      20/  6     1024.0

$$

ANZ835-935-AMZ111-154-330-350-352-354-370-450-454-472-031500-
...C-MAN AND BUOY OBSERVATIONS...

STATION/POSITION TIME  TEMP    WIND        PRES    WAVE   SWELL
                       AIR SEA DIR/SP/G            HT/PER HT/PER/DIR
                 (UTC) (F)     (DEG/KT/KT) (MB)    (FT/S) (FT/S/D)
BUOY 41004       1250   60 75   20/ 19/ 23 1022.3    4/ 4   2/120/ 9
BUOY 41008       1250   60 64   10/ 12/ 14 1023.7    2/ 9   2/140/ 9
FOLLY BEACH CMAN 1300   50      20/ 16/ 18 1024.6R
CAPERS NEARSHORE 1308   52 62   30/ 17/ 23 1024.0R
FRIPP NEARSHORE  1308   56 63   30/ 12/ 16 1024.0R


STATION/POSITION TIME  TEMP    WIND        PRES    WAVE   SWELL
                       AIR SEA DIR/SP/G            HT/PER HT/PER/DIR
                 (UTC) (F)     (DEG/KT/KT) (MB)    (FT/S) (FT/S/D)
5E ST. MARYS GA  1400      66                N/A     3/ 5
FRYING PAN BUOY  1310   53 74   20/ 19/ 25 1023.9
BUOY 41025       1250   51 75  360/ 23/ 29 1021.4    5/ 6   2/ 60/ 8
CAPE LOOKOUT NC  1300   44     340/ 12/ 14 1023.4R
BUOY 41002       1250   65 74  360/ 16/ 21 1019.9    5/ 5   2/160/ 8
BUOY 41010       NOT AVBL
ST AUGUSTINE FL  1300   64 66   30/ 15/ 17 1023.4R


$$




USA.gov is the U.S. government's official web portal to all federal, state and local government web resources and services.